SCOUT B DEB

基本信息
目录编号:
29279
目录名称:
SCOUT B DEB
国际标识:
1968-066N
轨道中心:
EARTH
物体状态:
在轨
发射日期:
1968-08-08 UTC
轨道信息
数据来源: 国际轨道数据
星历时间: 2026-07-12T05:48:18+0800
半长轴: 7378.243km
偏心率: 0.0510146
轨道倾角: 80.595°
近地点辐角: 192.110°
升交点赤经: 265.037°
平近点角: 166.740°
近地点: 623.707km
远地点: 1376.505km
周期: 105.121分钟
每日圈数: 13.69851
详细信息
发射场:
AFWTR
轨道高度:
LEO
数据来源:
AOE Integration Group
参考系:
TEME
时间系统:
UTC
历元类型:
SGP4
2D轨道图
3D轨道图
轨道高度分析图
轨道倾角分析图
轨道综合分析图
查看轨道综合分析图